Weather History for Connaught Airport, Ireland

Change the Weather History Date:

Wednesday, April 2, 2014

  Actual Average Record
Temperature  
Mean Temperature 46 °F -  
Max Temperature 51 °F - - ()
Min Temperature 41 °F - - ()
Degree Days  
Heating Degree Days 19    
Moisture  
Dew Point 46 °F    
Average Humidity 96    
Maximum Humidity 100    
Minimum Humidity 75    
Precipitation  
Precipitation 0.20 in - - ()
Sea Level Pressure  
Sea Level Pressure 29.49 in    
Wind  
Wind Speed 16 mph ()    
Max Wind Speed 21 mph    
Max Gust Speed 32 mph    
Visibility 4.3 miles    
Events Rain    
T = Trace of Precipitation, MM = Missing Value Source: Averaged Metar Reports

Daily Weather History Graph

Daily Weather History Graph

Search for Another Location

Airport:

Trip Planner

Search our weather history database for the weather conditions in past years. The results will help you decide how hot, cold, wet, or windy it might be!

Date:

Astronomy

Apr. 02, 2014 Rise Set
Actual Time 7:06 AM IST 8:12 PM IST
Civil Twilight 6:30 AM IST 8:48 PM IST
Nautical Twilight 5:46 AM IST 9:32 PM IST
Astronomical Twilight 4:58 AM IST 10:21 PM IST
Moon 8:18 AM IST (4/2) 11:49 PM IST (4/2)
Length of Visible Light 14h 18m
Length of Day
13h 06m
Waxing Crescent, 9% of the Moon is Illuminated
Apr 2
Waxing Crescent
Apr 7
First Quarter
Apr 15
Full
Apr 22
Last Quarter
Apr 29
New

Hourly Weather History & Observations

Time (IST) Temp. Windchill Dew Point Humidity Pressure Visibility Wind Dir Wind Speed Gust Speed Precip Events Conditions
12:00 AM 44 °F - 39 °F 75% 29.70 in - East 15.7 mph - -  
1:00 AM 44 °F - 39 °F 76% 29.67 in - East 17.9 mph - -  
2:00 AM 43 °F - 40 °F 86% 29.66 in - ESE 17.9 mph - -  
3:00 AM 42 °F - 41 °F 95% 29.64 in - ESE 17.9 mph - -  
4:00 AM 42 °F - 41 °F 95% 29.62 in - East 17.9 mph - -  
5:00 AM 42 °F - 41 °F 97% 29.60 in - East 17.9 mph - -  
6:00 AM 43 °F - 42 °F 92% 29.57 in 12 mi East 20.1 mph - -   Mostly Cloudy
6:00 AM 42.8 °F 34.3 °F 41.0 °F 93% 29.53 in 6.2 mi East 19.6 mph 32.2 mph N/A   Mostly Cloudy
6:30 AM 42.8 °F 35.1 °F 42.8 °F 100% 29.53 in 6.2 mi East 16.1 mph - N/A   Mostly Cloudy
7:00 AM 43 °F - 42 °F 95% 29.56 in 11 mi East 17.9 mph - -   Partly Cloudy
7:00 AM 42.8 °F 34.8 °F 42.8 °F 100% 29.53 in 6.2 mi East 17.3 mph - N/A   Mostly Cloudy
7:30 AM 42.8 °F 34.5 °F 42.8 °F 100% 29.50 in 6.2 mi East 18.4 mph - N/A   Mostly Cloudy
8:00 AM 44 °F - 43 °F 94%  in 6 mi East 17.9 mph - -   Mostly Cloudy
8:00 AM 42.8 °F 34.8 °F 42.8 °F 100% 29.50 in 6.2 mi East 17.3 mph - N/A   Mostly Cloudy
8:30 AM 44.6 °F 36.9 °F 42.8 °F 93% 29.50 in 5.0 mi East 18.4 mph 31.1 mph N/A   Mostly Cloudy
9:00 AM 44 °F - 44 °F 98% 29.52 in 3 mi East 17.9 mph - - Rain Light Rain
9:00 AM 44.6 °F 36.9 °F 44.6 °F 100% 29.50 in 3.1 mi East 18.4 mph - N/A Rain Light Rain
9:30 AM 44.6 °F 36.9 °F 44.6 °F 100% 29.47 in 3.1 mi East 18.4 mph - N/A Rain Light Rain
10:00 AM 45 °F - 45 °F 98% 29.51 in 2 mi East 17.9 mph - - Rain Light Rain
10:00 AM 44.6 °F 36.9 °F 44.6 °F 100% 29.47 in 1.9 mi East 18.4 mph - N/A Rain Light Rain
10:30 AM 46.4 °F 39.0 °F 46.4 °F 100% 29.47 in 1.9 mi East 19.6 mph 32.2 mph N/A Rain Light Rain
11:00 AM 47 °F - 46 °F 96% 29.49 in 2 mi East 20.1 mph - - Rain Light Rain
11:00 AM 46.4 °F 39.0 °F 46.4 °F 100% 29.47 in 1.6 mi East 19.6 mph - N/A Rain Light Rain
11:30 AM 48.2 °F - 48.2 °F 100% 29.44 in 3.1 mi East 18.4 mph - N/A Rain Light Rain
12:00 PM 48 °F - 47 °F 96% 29.48 in 2 mi East 20.1 mph - - Rain Light Rain
12:00 PM 48.2 °F - 48.2 °F 100% 29.44 in 2.5 mi East 20.7 mph - N/A Rain Light Rain
2:00 PM 49 °F - 49 °F 98% 29.44 in 2 mi ESE 17.9 mph - - Rain Light Rain
2:00 PM 48.2 °F - 48.2 °F 100% 29.42 in 1.6 mi ESE 18.4 mph - N/A Rain Light Rain
2:30 PM 50.0 °F - 48.2 °F 94% 29.42 in 1.6 mi ESE 16.1 mph - N/A Rain Light Rain
3:00 PM 49 °F - 49 °F 100% 29.44 in 2 mi ESE 15.7 mph - - Rain Light Rain
3:00 PM 50.0 °F - 48.2 °F 94% 29.42 in 1.6 mi ESE 16.1 mph - N/A Rain Light Rain
3:30 PM 50.0 °F - 50.0 °F 100% 29.42 in 1.7 mi ESE 17.3 mph - N/A Rain Light Rain
4:00 PM 50 °F - 49 °F 96% 29.44 in 2 mi ESE 15.7 mph - - Rain Light Rain
4:00 PM 50.0 °F - 50.0 °F 100% 29.42 in 1.6 mi ESE 16.1 mph - N/A Rain Light Rain
4:30 PM 50.0 °F - 50.0 °F 100% 29.42 in 2.5 mi ESE 13.8 mph - N/A Rain Light Rain
5:00 PM 51 °F - 51 °F 98% 29.42 in 6 mi ESE 13.4 mph - - Rain Light Rain
5:00 PM 51.8 °F - 50.0 °F 94% 29.39 in 5.6 mi ESE 13.8 mph - N/A   Overcast
5:30 PM 51.8 °F - 50.0 °F 94% 29.42 in 6.2 mi ESE 13.8 mph - N/A   Overcast
6:00 PM 51 °F - 50 °F 95% 29.42 in 8 mi ESE 13.4 mph - -   Overcast
6:00 PM 51.8 °F - 50.0 °F 94% 29.42 in 6.2 mi ESE 12.7 mph - N/A   Mostly Cloudy
7:00 PM 51 °F - 50 °F 94% 29.43 in 9 mi ESE 13.4 mph - -   Partly Cloudy
8:00 PM 50 °F - 50 °F 99% 29.42 in - ESE 13.4 mph - -  
9:00 PM 50 °F - 50 °F 98% 29.44 in - ESE 11.2 mph - -  
10:00 PM 49 °F - 49 °F 100% 29.44 in - ESE 11.2 mph - -  
11:00 PM 49 °F - 49 °F 98% 29.45 in - ESE 8.9 mph - -